DELTA 1 R/B, 3094

Orbit data source: Space-Track

DELTA 1 R/B, 3094 is space debris in LEO originally from a launch on Thu, 11 Jan 1968 UTC launched from the Air Force Western Test Range (AFWTR). Debris objects in space refer to the collection of defunct objects orbiting the Earth. Examples of debris include non-operational satellites, rocket bodies, and fragments generated from explosions, collisions, or faulty payload assembly.

Loading next visibility...
Identifier
3094, 1968-002B
Orbit
LEO
Country
Flag of USUS
Related business
Manufacturer
UTC
Mission
Spacecraft
Bus & Motor
FW4, Unknown motor
Mass
~40 kg wet, ~40 kg dry
Launch date (UTC)
1968-01-11 (58 years ago)
Launch vehicle
Unknown
Launch site
Air Force Western Test Range (AFWTR)
Object type
Payload
Rocket body
Debris
Shape & HBR
Unknown
Radar Cross Section
Medium (>0.1 m² and <1 m²)

Expand to show TLE details & history
Last TLE update: 4 hours ago

TLE from 4 hours ago
0 DELTA 1 R/B
1  3094U 68002B   26095.54022566 -.00000021  00000-0  17952-3 0  9995
2  3094 105.8013  34.3812 0313036 164.7600 305.9715 12.85279354730621
Epoch: 2026-04-05T12:57Z
TLE epoch observation values (Epoch: 2026-04-05T12:57:55.497Z)
Latitude
66.48863°
Longitude
-133.6145°
Altitude
1,194.963 km
Speed
7.327 km/s
True Right ascension
16h 58m 50s
True Declination
66° 22' 11"
Sunlit
Object was in daylight at epoch
Visualization orbit readout
Latitude
Unknown
Longitude
Unknown
Altitude
Unknown
Speed
Unknown
Apparent Right ascension
Unknown
Apparent Declination
Unknown
Sunlit
N/A
Visualization observer readout
Local Sidereal Time
22:50:55
Azimuth
Unknown
Elevation
Unknown
Doppler factor
Unknown
Orbital elements
Apogee altitude
1,559.014 km
Perigee altitude
1,077.174 km
Semi-major axis
7,696.231 km
Eccentricity
0.0313
Inclination
105.8013°
RAAN
34.3812°
Arg. of periapsis
164.76°
True anomaly
303.00151°
Mean anomaly
305.9715°
Eccentric anomaly
304.49326°
Mean motion
3.21459 °/min
Orbital period
111.99 mins
BSTAR
0.00017952
Loading maneuver chart data...
Computing Atmospheric mass density...
Loading historical data...
Loading historical data...
Loading historical data...
Loading historical data...
Loading historical data...
Loading historical data...
Loading historical data...

Documentation

Showing up to 5 results
|